Terminal Aerodrome Forecast
Issued by NWS

Home | Current Version | Previous Version | Graphics & Text | Print | Product List | Glossary On
Versions: 1 2 3 4 5 6 7 8 9 10 11 12 13 14 15 16 17 18
000
FTUS43 KABR 250100 AAA
TAFMBG
TAF AMD
KMBG 250100Z 2501/2524 17008KT P6SM BKN015 BKN080
     FM250500 01006KT P6SM SCT025 BKN040 OVC060
     FM251000 01014KT 2SM -SN BR OVC020=

USA.gov is the U.S. government's official web portal to all federal, state and local government web resources and services.